Regional Weather Roundup
Issued by NWS

Home | Current Version | Previous Version | Graphics & Text | Print | Product List | Glossary On
Versions: 1 2 3 4 5 6 7 8 9 10 11 12 13 14 15 16 17 18 19 20 21 22 23 24 25 26 27 28 29 30 31 32 33 34 35 36 37 38 39 40 41 42 43 44 45 46 47 48 49 50
000
ASUS43 KMKX 211759
RWRWI

WISCONSIN REGIONAL WEATHER ROUNDUP
NATIONAL WEATHER SERVICE MILWAUKEE/SULLIVAN WI
1200 PM CST WED FEB 21 2018

NOTE: "FAIR" INDICATES FEW OR NO CLOUDS BELOW 12,000 FEET WITH NO
SIGNIFICANT WEATHER AND/OR OBSTRUCTIONS TO VISIBILITY.

WIZ001-002-006>008-014>016-023>028-211900-
NORTHWEST WISCONSIN

CITY           SKY/WX    TMP DP  RH WIND       PRES   REMARKS
SUPERIOR ARPT  FAIR      16   2  52 W14       30.56S WCI   2
6HR MIN TEMP:  -3; 6HR MAX TEMP:  16;

ASHLAND        FAIR      16   4  59 SW13G20   30.55R WCI   2
6HR MIN TEMP:  -1; 6HR MAX TEMP:  16;

HAYWARD        FAIR      14   2  58 S9        30.56R WCI   2
6HR MIN TEMP:  -5; 6HR MAX TEMP:  14;

SIREN          FAIR      15   1  54 SW9       30.58S WCI   3
CUMBERLAND     FAIR      12   3  67 S7        30.58R WCI   2
RICE LAKE      FAIR      13   3  66 S5        30.61S WCI   5
CHETEK         FAIR      13   2  59 SW6       30.61S WCI   4
LADYSMITH      FAIR      15   4  63 SW3       30.58F
EAU CLAIRE     NOT AVBL
MENOMONIE      FAIR      15   4  59 W5        30.62F WCI   8
NEW RICHMOND   FAIR      14   3  61 S6        30.62R WCI   5
OSCEOLA        FAIR      15   3  59 CALM      30.65R
$$

WIZ003>005-009-010-017-018-211900-
NORTH CENTRAL WISCONSIN

CITY           SKY/WX    TMP DP  RH WIND       PRES   REMARKS
MANITOWISH WTR FAIR      12   4  72 W10       30.48S WCI  -2
ARBOR VITAE    FAIR      17   9  70 W5        30.49R WCI  10
WOODRUFF       FAIR      17   9  70 W5        30.49R WCI  10
RHINELANDER    FAIR      17   5  59 W12       30.50R WCI   4
6HR MIN TEMP:   1; 6HR MAX TEMP:  17;

EAGLE RIVER    FAIR      15   3  60 W10       30.47S WCI   2
6HR MIN TEMP:   2; 6HR MAX TEMP:  15;

LAND O LAKES   FAIR      16   5  62 W7        30.49R WCI   6
PHILLIPS       FAIR      13   4  66 W8        30.52S WCI   2
TOMAHAWK       FAIR      15   5  63 W6        30.52S WCI   6
MEDFORD        FAIR      14   4  65 W7        30.53S WCI   3
MERRILL        FAIR      18   7  61 W8        30.54S WCI   8
6HR MIN TEMP:   4; 6HR MAX TEMP:  18;

$$

WIZ029-030-035-036-043>047-211900-
CENTRAL WISCONSIN

CITY           SKY/WX    TMP DP  RH WIND       PRES   REMARKS
WAUSAU         FAIR      13   4  67 W7        30.55S WCI   3
6HR MIN TEMP:   5; 6HR MAX TEMP:  13;

MOSINEE        MOSUNNY   16   7  67 W7        30.57S WCI   6
MARSHFIELD     FAIR      14   6  70 W8        30.56S WCI   3
6HR MIN TEMP:   4; 6HR MAX TEMP:  14;

STEVENS POINT  FAIR      13   3  63 W8        30.59S WCI   2
WAUPACA        FAIR      22   6  49 NW9G18    30.60S WCI  12
WAUTOMA        NOT AVBL
WISC RAPIDS    FAIR      17   6  62 NW9       30.60S WCI   6
6HR MIN TEMP:   9; 6HR MAX TEMP:  17;

CAMP DOUGLAS   PTSUNNY   19   9  63 NW5       30.61S WCI  13
$$

WIZ011>013-019>022-031-037>040-048>050-211900-
NORTHEAST WISCONSIN

CITY           SKY/WX    TMP DP  RH WIND       PRES   REMARKS
ANTIGO         FAIR      14   6  70 W9        30.51S WCI   2
SHAWANO        FAIR      24   9  53 W5        30.57S WCI  18
OCONTO         FAIR      22   9  56 NW7       30.57S WCI  14
STURGEON BAY   FAIR      23  10  57 NW8       30.56S WCI  14
6HR MIN TEMP:  17; 6HR MAX TEMP:  23;

GREEN BAY      FAIR      23  11  60 W12       30.57F WCI  12
6HR MIN TEMP:  18; 6HR MAX TEMP:  24;

MANITOWOC      FAIR      23  12  62 NW10      30.58  WCI  12
6HR MIN TEMP:  20; 6HR MAX TEMP:  23;

APPLETON       MOSUNNY   21   5  49 NW12      30.56S WCI   9
CLINTONVILLE   FAIR      21   7  55 W9        30.58S WCI  11
6HR MIN TEMP:  14; 6HR MAX TEMP:  21;

OSHKOSH        FAIR      21   8  57 NW10      30.58R WCI  10
6HR MIN TEMP:  17; 6HR MAX TEMP:  21;

$$

WIZ032>034-041-042-053>061-211900-
SOUTHWEST WISCONSIN

CITY           SKY/WX    TMP DP  RH WIND       PRES   REMARKS
LA CROSSE      FAIR      20   9  62 N7        30.65S WCI  11
6HR MIN TEMP:  11; 6HR MAX TEMP:  20;

SPARTA         PTSUNNY   18  11  73 SW3       30.64S
VIROQUA        FAIR      17  10  76 CALM      30.59S
BOSCOBEL       FAIR      23   6  48 NE3       30.64F
6HR MIN TEMP:  15; 6HR MAX TEMP:  23;

PRAIRIE DU CHI FAIR      20   4  49 NW7       30.65R WCI  11
PLATTEVILLE    FAIR      21  14  73 NW8       30.60S WCI  11
$$

WIZ056-057-062-063-064-067-068-211900-
SOUTH CENTRAL WISCONSIN

CITY           SKY/WX    TMP DP  RH WIND       PRES   REMARKS
REEDSBURG      FAIR      21   7  56 NW3       30.61S
6HR MIN TEMP:  14; 6HR MAX TEMP:  21;

BARABOO/DELLS  FAIR      20   5  52 NW6       30.59F WCI  13
LONE ROCK      NOT AVBL
MINERAL POINT  FAIR      23  16  74 N8        30.58S WCI  14
MADISON        PTSUNNY   22  12  65 NW9       30.59S WCI  12
6HR MIN TEMP:  18; 6HR MAX TEMP:  22;

MIDDLETON      FAIR      23  13  64 NW9       30.59F WCI  13
WATERTOWN      FAIR      22  13  70 NW7       30.58S WCI  13
MONROE         FAIR      23  16  74 N7        30.56F WCI  15
JANESVILLE     CLOUDY    27  18  69 NW6       30.58S WCI  20
$$

WIZ051-052-058>065-066-070>072-211900-
SOUTHEAST WISCONSIN

CITY           SKY/WX    TMP DP  RH WIND       PRES   REMARKS
MILWAUKEE      CLOUDY    27  14  58 NW12      30.57S WCI  17
6HR MIN TEMP:  24; 6HR MAX TEMP:  28;

WAUKESHA       SUNNY     21  12  68 NW10      30.58S WCI  10
MILWAUKEE/TIMM SUNNY     25  12  58 NW9       30.58S WCI  15
RACINE         FAIR      28  15  58 NW6       30.59R WCI  22
6HR MIN TEMP:  24; 6HR MAX TEMP:  28;

BURLINGTON     FAIR      25  15  65 N6        30.58R WCI  18
KENOSHA        FAIR      27  16  63 NW8       30.57R WCI  19
6HR MIN TEMP:  25; 6HR MAX TEMP:  28;

FOND DU LAC    FAIR      23  10  57 N8        30.58S WCI  14
6HR MIN TEMP:  19; 6HR MAX TEMP:  23;

SHEBOYGAN      FAIR      22  13  68 W9        30.57S WCI  12
6HR MIN TEMP:  20; 6HR MAX TEMP:  23;

WEST BEND      FAIR      23  16  74 NW12      30.57S WCI  12
JUNEAU         FAIR      19  12  73 NW7       30.59F WCI  10
$$

LSZ147-162-211900-
LAKE SUPERIOR

STATION/POSITION TIME  TEMP    WIND        PRES    WAVE
                       AIR SEA DIR/SP/G            HT/PER
                 (UTC) (F)     (DEG/KT/KT) (MB)    (FT/S)
DEVILS ISLAND    1700   11     230/ 10/ 13 1035.1R
SAXON HARBOR     1730   18     220/  7/ 13 1034.2R
$$

LMZ867-665-643>646-211900-
LAKE MICHIGAN

STATION/POSITION TIME  TEMP    WIND        PRES    WAVE
                       AIR SEA DIR/SP/G            HT/PER
                 (UTC) (F)     (DEG/KT/KT) (MB)    (FT/S)
NORTHPORT PIER   1740   19                 1034.2S
KEWAUNEE LAKESHO 1730   22     270/  8/ 12 1034.3R
SHEBOYGAN LAKESH 1700   22     310/ 11/ 14 1036.3R
PORT WASHINGTON  1740   25     330/  4/  9 1036.2F
MILWAUKEE LAKESH 1730   25     320/  8/ 10   N/A
KENOSHA   LAKESH 1700   26     330/  9/ 12 1035.2
$$

TC  - TEMPERATURE IN CELSIUS
VSB - VISIBILITY IN STATUTE MILES
WCI - WIND CHILL INDEX
HX  - HEAT INDEX




USA.gov is the U.S. government's official web portal to all federal, state and local government web resources and services.